SQ9IWE-13 Weather Reports


time (UTC)temp
C
wind
direction
speed
KPH
gust
KPH
rain 1hr
cm
rain 24hr
cm
rain mn
cm
humidity
%
barometer
mb
20260508055001 10 0.0 0.0 0.00 0.00 0.00 100 1016.2
20260508054001 10 0.0 0.0 0.00 0.00 0.00 100 1016.0
20260508053001 10 0.0 0.0 0.00 0.00 0.00 100 1016.0
20260508052001 10 0.0 0.0 0.00 0.00 0.00 100 1016.0
20260508051001 10 0.0 0.0 0.00 0.00 0.00 100 1015.8
20260508050001 10 0.0 0.0 0.00 0.00 0.00 100 1015.7
20260508045001 10 0.0 0.0 0.00 0.00 0.00 100 1015.6
20260508044001 10 0.0 0.0 0.00 0.00 0.00 100 1015.7
20260508043001 10 0.0 0.0 0.00 0.00 0.00 100 1015.5
20260508042001 10 0.0 0.0 0.00 0.00 0.00 100 1015.5
20260508041001 10 0.0 0.0 0.00 0.00 0.00 100 1015.4
20260508040001 10 0.0 0.0 0.00 0.00 0.00 100 1015.4
20260508035001 10 0.0 0.0 0.00 0.00 0.00 100 1015.5
20260508034001 10 0.0 0.0 0.00 0.00 0.00 100 1015.3
20260508033001 10 0.0 0.0 0.00 0.00 0.00 100 1015.1
20260508032001 10 0.0 0.0 0.00 0.00 0.00 100 1014.9
20260508031001 10 0.0 0.0 0.00 0.00 0.00 100 1014.8
20260508030001 10 0.0 0.0 0.00 0.00 0.00 100 1014.6
20260508025000 10 0.0 0.0 0.00 0.00 0.00 100 1014.8
20260508024001 10 0.0 0.0 0.00 0.00 0.00 100 1014.6
20260508023000 10 0.0 0.0 0.00 0.00 0.00 100 1014.5
20260508022000 10 0.0 0.0 0.00 0.00 0.00 100 1014.4
20260508021000 10 0.0 0.0 0.00 0.00 0.00 100 1014.6
20260508020000 10 0.0 0.0 0.00 0.00 0.00 100 1014.7
20260508015000 10 0.0 0.0 0.00 0.00 0.00 100 1014.9
20260508014000 11 0.0 0.0 0.00 0.00 0.00 100 1014.8
20260508013000 11 0.0 0.0 0.00 0.00 0.00 100 1014.8
20260508012001 11 0.0 0.0 0.00 0.00 0.00 100 1014.9
20260508011001 11 0.0 0.0 0.00 0.00 0.00 100 1014.9
20260508010001 11 0.0 0.0 0.00 0.00 0.00 100 1014.8
20260508005001 11 0.0 0.0 0.00 0.00 0.00 100 1014.5
20260508004001 11 0.0 0.0 0.00 0.00 0.00 100 1014.5
20260508003001 11 0.0 0.0 0.00 0.00 0.00 100 1014.4
20260508002001 12 0.0 0.0 0.00 0.00 0.00 100 1014.4
20260508001001 12 0.0 0.0 0.00 0.00 0.00 100 1014.3
20260508000001 12 0.0 0.0 0.00 0.00 0.00 100 1014.3
20260507235001 12 0.0 0.0 0.00 0.00 0.00 100 1014.3
20260507234001 12 0.0 0.0 0.00 0.00 0.00 100 1014.4
20260507233001 12 0.0 0.0 0.00 0.00 0.00 100 1014.4
20260507232001 12 0.0 0.0 0.00 0.00 0.00 100 1014.4
20260507231001 12 0.0 0.0 0.00 0.00 0.00 100 1014.5
20260507230001 12 0.0 0.0 0.00 0.00 0.00 100 1014.5
20260507225001 12 0.0 0.0 0.00 0.00 0.00 100 1014.4
20260507224001 12 0.0 0.0 0.00 0.00 0.00 100 1014.5
20260507223001 12 0.0 0.0 0.00 0.00 0.00 100 1014.4
20260507222001 12 0.0 0.0 0.00 0.00 0.00 100 1014.5
20260507221001 12 0.0 0.0 0.00 0.00 0.00 100 1014.4
20260507220001 12 0.0 0.0 0.00 0.00 0.00 100 1014.1
20260507215001 12 0.0 0.0 0.00 0.00 0.00 100 1014.2
20260507214001 12 0.0 0.0 0.00 0.00 0.00 100 1014.3
20260507212001 12 0.0 0.0 0.00 0.00 0.00 100 1014.2
20260507211000 12 0.0 0.0 0.00 0.00 0.00 100 1014.1
20260507210001 12 0.0 0.0 0.00 0.00 0.00 100 1013.9
20260507205000 12 0.0 0.0 0.00 0.00 0.00 100 1013.7
20260507204001 12 0.0 0.0 0.00 0.00 0.00 100 1013.5
20260507203000 12 0.0 0.0 0.00 0.00 0.00 100 1013.5
20260507202000 12 0.0 0.0 0.00 0.00 0.00 100 1013.3
20260507201000 12 0.0 0.0 0.00 0.00 0.00 100 1013.5
20260507200000 12 0.0 0.0 0.00 0.00 0.00 100 1013.6
20260507195000 12 0.0 0.0 0.00 0.00 0.00 100 1013.7
20260507194000 12 0.0 0.0 0.00 0.00 0.00 100 1013.4
20260507193000 12 0.0 0.0 0.00 0.00 0.00 100 1013.0
20260507192000 12 0.0 0.0 0.00 0.00 0.00 99 1012.9
20260507191000 12 0.0 0.0 0.00 0.00 0.00 100 1012.8
20260507190001 12 0.0 0.0 0.00 0.00 0.00 100 1012.9
20260507185001 13 0.0 0.0 0.00 0.00 0.00 100 1012.9
20260507184001 13 0.0 0.0 0.00 0.00 0.00 100 1012.8
20260507183001 14 0.0 0.0 0.00 0.00 0.00 93 1012.6
20260507182001 15 0.0 0.0 0.00 0.00 0.00 87 1012.6
20260507181001 15 0.0 0.0 0.00 0.00 0.00 84 1012.5
20260507180001 15 0.0 0.0 0.00 0.00 0.00 83 1011.7
20260507175001 15 0.0 0.0 0.00 0.00 0.00 84 1011.3
20260507173001 15 0.0 0.0 0.00 0.00 0.00 81 1011.0
20260507172001 17 0.0 0.0 0.00 0.00 0.00 76 1011.3
20260507171001 16 0.0 0.0 0.00 0.00 0.00 80 1010.9
20260507170001 16 0.0 0.0 0.00 0.00 0.00 79 1010.7
20260507165001 17 0.0 0.0 0.00 0.00 0.00 74 1010.7
20260507164001 17 0.0 0.0 0.00 0.00 0.00 71 1010.5
20260507162001 18 0.0 0.0 0.00 0.00 0.00 68 1010.1
20260507161001 18 0.0 0.0 0.00 0.00 0.00 68 1010.1
20260507160001 18 0.0 0.0 0.00 0.00 0.00 70 1010.2
20260507155001 18 0.0 0.0 0.00 0.00 0.00 71 1010.2
20260507154001 18 0.0 0.0 0.00 0.00 0.00 70 1010.2
20260507153001 18 0.0 0.0 0.00 0.00 0.00 69 1010.3
20260507152001 18 0.0 0.0 0.00 0.00 0.00 68 1010.4
20260507151001 18 0.0 0.0 0.00 0.00 0.00 67 1010.2
20260507150001 18 0.0 0.0 0.00 0.00 0.00 67 1010.2
20260507145001 18 0.0 0.0 0.00 0.00 0.00 66 1010.1
20260507144001 18 0.0 0.0 0.00 0.00 0.00 66 1010.1
20260507143001 19 0.0 0.0 0.00 0.00 0.00 63 1010.1
20260507142001 20 0.0 0.0 0.00 0.00 0.00 61 1010.2
20260507141001 20 0.0 0.0 0.00 0.00 0.00 57 1010.2
20260507140001 21 0.0 0.0 0.00 0.00 0.00 58 1010.3
20260507135001 21 0.0 0.0 0.00 0.00 0.00 58 1010.2
20260507134001 20 0.0 0.0 0.00 0.00 0.00 57 1010.3
20260507133000 20 0.0 0.0 0.00 0.00 0.00 57 1010.4
20260507132000 20 0.0 0.0 0.00 0.00 0.00 56 1010.3
20260507131000 20 0.0 0.0 0.00 0.00 0.00 59 1010.3
20260507125000 21 0.0 0.0 0.00 0.00 0.00 57 1010.4
20260507124000 21 0.0 0.0 0.00 0.00 0.00 56 1010.5
20260507123000 22 0.0 0.0 0.00 0.00 0.00 57 1010.4
20260507122000 21 0.0 0.0 0.00 0.00 0.00 59 1010.5
20260507121000 20 0.0 0.0 0.00 0.00 0.00 62 1010.7
20260507120000 20 0.0 0.0 0.00 0.00 0.00 62 1010.8
20260507115000 22 0.0 0.0 0.00 0.00 0.00 55 1010.7
20260507114001 22 0.0 0.0 0.00 0.00 0.00 53 1010.6
20260507113001 22 0.0 0.0 0.00 0.00 0.00 55 1010.5
20260507112001 21 0.0 0.0 0.00 0.00 0.00 55 1010.5
20260507111001 22 0.0 0.0 0.00 0.00 0.00 57 1010.6
20260507110001 21 0.0 0.0 0.00 0.00 0.00 58 1010.7
20260507105001 21 0.0 0.0 0.00 0.00 0.00 58 1010.6
20260507104001 21 0.0 0.0 0.00 0.00 0.00 60 1010.5
20260507103001 21 0.0 0.0 0.00 0.00 0.00 59 1010.4
20260507102001 21 0.0 0.0 0.00 0.00 0.00 60 1010.5
20260507101001 20 0.0 0.0 0.00 0.00 0.00 61 1010.6
20260507100001 21 0.0 0.0 0.00 0.00 0.00 60 1010.5
20260507095001 21 0.0 0.0 0.00 0.00 0.00 60 1010.3
20260507094001 21 0.0 0.0 0.00 0.00 0.00 61 1010.3
20260507093001 21 0.0 0.0 0.00 0.00 0.00 61 1010.2
20260507092001 20 0.0 0.0 0.00 0.00 0.00 62 1010.2
20260507091001 21 0.0 0.0 0.00 0.00 0.00 62 1010.1
20260507090001 21 0.0 0.0 0.00 0.00 0.00 62 1009.8
20260507085001 20 0.0 0.0 0.00 0.00 0.00 64 1009.8
20260507084001 19 0.0 0.0 0.00 0.00 0.00 67 1009.7
20260507083001 21 0.0 0.0 0.00 0.00 0.00 62 1009.6
20260507082001 21 0.0 0.0 0.00 0.00 0.00 65 1009.4
20260507081001 18 0.0 0.0 0.00 0.00 0.00 71 1009.5
20260507080001 18 0.0 0.0 0.00 0.00 0.00 70 1009.5
20260507075001 18 0.0 0.0 0.00 0.00 0.00 71 1009.4
20260507074001 18 0.0 0.0 0.00 0.00 0.00 68 1009.1
20260507073001 -13 0.0 0.0 0.00 0.00 0.00 68 19.8
20260507072001 18 0.0 0.0 0.00 0.00 0.00 70 1008.8
20260507071001 18 0.0 0.0 0.00 0.00 0.00 70 1008.8
20260507070001 18 0.0 0.0 0.00 0.00 0.00 71 1008.6
20260507065001 17 0.0 0.0 0.00 0.00 0.00 72 1008.6
20260507064000 17 0.0 0.0 0.00 0.00 0.00 75 1008.7
20260507063000 16 0.0 0.0 0.00 0.00 0.00 77 1008.6
20260507062000 16 0.0 0.0 0.00 0.00 0.00 77 1008.6
20260507061000 16 0.0 0.0 0.00 0.00 0.00 77 1008.5
20260507060000 16 0.0 0.0 0.00 0.00 0.00 78 1008.3